BREEZE-M R/B, 42935

Orbit data source: Space-Track

BREEZE-M R/B, 42935 is space debris in HEO originally from a launch on Mon, 11 Sep 2017 UTC launched from the Tyuratam Missile And Space Complex (TTMTR). Debris objects in space refer to the collection of defunct objects orbiting the Earth. Examples of debris include non-operational satellites, rocket bodies, and fragments generated from explosions, collisions, or faulty payload assembly.

Loading next visibility...
Identifier
42935, 2017-053B
Orbit
HEO
Country
Flag of CISCIS
Related business
Manufacturer
Khrunichev
Mission
Spacecraft
Bus & Motor
BRIZ, Unknown motor
Mass
~1,600 kg wet, 1,600 kg dry
Launch date (UTC)
2017-09-11 (9 years ago)
Launch vehicle
Unknown
Launch site
Tyuratam Missile And Space Complex (TTMTR)
Object type
Payload
Rocket body
Debris
Shape & HBR
Cyl, 2.4 m
Radar Cross Section
15.135 m², Large (>1 m²)

Expand to show TLE details & history
Last TLE update: 1 day ago

TLE from 1 day ago
0 BREEZE-M R/B
1 42935U 17053B   26262.27282986 -.00000142  00000-0  00000-0 0  9999
2 42935  23.6444  35.7713 5944083 355.4657   0.8200  2.19135402 72211
Epoch: 2026-09-19T06:32Z
TLE epoch observation values (Epoch: 2026-09-19T06:32:52.499Z)
Latitude
-0.00021°
Longitude
-60.63494°
Altitude
3,781.548 km
Speed
7.909 km/s
True Right ascension
02h 23m 04s
True Declination
0° 00' 01"
Sunlit
Object was in partial shadow at epoch
Visualization orbit readout
Latitude
Unknown
Longitude
Unknown
Altitude
Unknown
Speed
Unknown
Apparent Right ascension
Unknown
Apparent Declination
Unknown
Sunlit
N/A
Visualization observer readout
Local Sidereal Time
00:53:23
Azimuth
Unknown
Elevation
Unknown
Doppler factor
Unknown
Orbital elements
Apogee altitude
33,546.209 km
Perigee altitude
3,777.971 km
Semi-major axis
25,040.227 km
Eccentricity
0.59441
Inclination
23.6444°
RAAN
35.7713°
Arg. of periapsis
355.4657°
True anomaly
4.00605°
Mean anomaly
0.82°
Eccentric anomaly
2.02112°
Mean motion
0.54775 °/min
Orbital period
657.23 mins
BSTAR
0
Loading maneuver chart data...
Computing Atmospheric mass density...
Loading historical data...
Loading historical data...
Loading historical data...
Loading historical data...
Loading historical data...
Loading historical data...
Loading historical data...
Other satellites on launch #53 in the year 2017 (2017-09-11 UTC)

Documentation

Showing up to 5 results
|